TimeAKDT,TemperatureF,Dew PointF,Humidity,Sea Level PressureIn,VisibilityMPH,Wind Direction,Wind SpeedMPH,Gust SpeedMPH,PrecipitationIn,Events,Conditions,WindDirDegrees,DateUTC
12:53 AM,46.0,44.1,93,30.01,10.0,NNW,3.5,-,N/A,,Overcast,330,2011-10-13 08:53:00
1:29 AM,46.4,42.8,87,30.01,10.0,Calm,Calm,-,0.01,Rain,Light Rain,0,2011-10-13 09:29:00
1:53 AM,45.0,43.0,93,30.01,10.0,East,5.8,-,0.01,,Overcast,100,2011-10-13 09:53:00
2:30 AM,44.6,42.8,93,30.01,10.0,East,6.9,-,N/A,,Overcast,100,2011-10-13 10:30:00
2:53 AM,45.0,42.1,90,30.01,10.0,ESE,5.8,-,N/A,,Mostly Cloudy,110,2011-10-13 10:53:00
3:30 AM,46.4,44.6,93,30.02,2.5,ESE,5.8,-,0.09,Rain,Heavy Rain,120,2011-10-13 11:30:00
3:39 AM,44.6,44.6,100,30.03,8.0,NE,3.5,-,0.09,Rain,Light Rain,50,2011-10-13 11:39:00
3:53 AM,45.0,43.0,93,30.02,10.0,East,3.5,-,0.09,,Overcast,90,2011-10-13 11:53:00
4:33 AM,44.6,44.6,100,30.04,5.0,Calm,Calm,-,0.03,Rain,Heavy Rain,0,2011-10-13 12:33:00
4:45 AM,44.6,42.8,93,30.04,7.0,East,3.5,-,0.04,Rain,Light Rain,90,2011-10-13 12:45:00
4:53 AM,45.0,43.0,93,30.04,8.0,Calm,Calm,-,0.05,Rain,Light Rain,0,2011-10-13 12:53:00
5:03 AM,44.6,44.6,100,30.04,10.0,Calm,Calm,-,0.00,Rain,Light Rain,0,2011-10-13 13:03:00
5:32 AM,44.6,42.8,93,30.04,10.0,East,3.5,-,0.01,Rain,Light Rain,80,2011-10-13 13:32:00
5:53 AM,44.1,42.1,93,30.05,10.0,NE,3.5,-,0.01,,Overcast,40,2011-10-13 13:53:00
6:53 AM,43.0,41.0,93,30.05,10.0,East,8.1,-,N/A,,Overcast,90,2011-10-13 14:53:00
7:53 AM,43.0,41.0,93,30.06,10.0,Calm,Calm,-,0.00,Rain,Light Rain,0,2011-10-13 15:53:00
8:53 AM,43.0,39.9,89,30.06,10.0,East,8.1,-,0.01,,Scattered Clouds,90,2011-10-13 16:53:00
9:53 AM,45.0,41.0,86,30.08,10.0,ESE,5.8,-,N/A,,Mostly Cloudy,110,2011-10-13 17:53:00
10:53 AM,46.9,42.1,83,30.09,10.0,East,5.8,-,N/A,,Mostly Cloudy,100,2011-10-13 18:53:00
11:46 AM,44.6,39.2,81,30.09,10.0,NNW,5.8,-,0.00,Rain,Light Rain,340,2011-10-13 19:46:00
11:53 AM,46.0,39.9,79,30.09,10.0,Calm,Calm,-,0.00,,Overcast,0,2011-10-13 19:53:00
12:10 PM,44.6,41.0,87,30.09,10.0,Calm,Calm,-,0.00,Rain,Small Hail,0,2011-10-13 20:10:00
12:17 PM,46.4,42.8,87,30.10,10.0,NW,5.8,-,0.00,Rain,Light Rain,320,2011-10-13 20:17:00
12:53 PM,44.1,37.9,79,30.11,10.0,North,15.0,-,0.00,Rain,Light Rain,360,2011-10-13 20:53:00
1:09 PM,46.4,37.4,71,30.09,10.0,North,8.1,-,N/A,,Overcast,360,2011-10-13 21:09:00
1:53 PM,45.0,37.9,76,30.11,10.0,East,8.1,-,N/A,,Overcast,80,2011-10-13 21:53:00
2:53 PM,46.0,37.9,73,30.11,10.0,ESE,6.9,-,N/A,,Scattered Clouds,120,2011-10-13 22:53:00
3:53 PM,46.0,37.9,73,30.11,10.0,ESE,5.8,-,N/A,,Scattered Clouds,120,2011-10-13 23:53:00
4:53 PM,46.0,39.0,76,30.10,10.0,ESE,4.6,-,N/A,,Clear,120,2011-10-14 00:53:00
5:53 PM,45.0,39.9,82,30.10,10.0,ESE,5.8,-,N/A,,Scattered Clouds,110,2011-10-14 01:53:00
6:31 PM,44.6,41.0,87,30.10,10.0,ESE,5.8,-,N/A,,Mostly Cloudy,110,2011-10-14 02:31:00
6:43 PM,44.6,39.2,81,30.10,10.0,ESE,8.1,-,N/A,,Mostly Cloudy,120,2011-10-14 02:43:00
6:53 PM,44.1,39.9,85,30.10,10.0,East,4.6,-,N/A,,Mostly Cloudy,100,2011-10-14 02:53:00
7:53 PM,42.1,39.9,92,30.11,10.0,East,6.9,-,N/A,,Mostly Cloudy,90,2011-10-14 03:53:00
8:53 PM,42.1,39.9,92,30.11,10.0,East,6.9,-,N/A,,Clear,100,2011-10-14 04:53:00
9:53 PM,41.0,39.0,93,30.12,10.0,East,6.9,-,N/A,,Scattered Clouds,100,2011-10-14 05:53:00
10:53 PM,39.9,37.9,93,30.12,10.0,East,4.6,-,N/A,,Overcast,100,2011-10-14 06:53:00
11:53 PM,42.1,39.9,92,30.13,7.0,Calm,Calm,-,0.01,Rain,Light Rain,0,2011-10-14 07:53:00